星链-4196 (STARLINK-4196 )

导读

STARLINK-4196是美国于北京时间2022年6月17日8点发射的星链卫星,隶属于SpaceX公司打造的星链卫星互联网星座项目。星链项目旨在通过大规模低轨卫星组网,为全球提供高速互联网接入服务,该卫星入轨后将承担相关通信信号转发任务。

基本信息
目录编号:
52859
目录名称:
STARLINK-4196
国际标识:
2022-062AF
轨道中心:
EARTH
卫星名称:
星链-4196
卫星全名:
星链-4196 (STARLINK-4196 )
卫星状态:
在轨 (已飞行1540 天)
发射日期:
2022-06-17 UTC
国别 :
美国 (US)
星等 :
--
轨道信息
数据来源 国际轨道数据
星历时间: 2026-09-02T18:33:58+0800
1天前
查看轨道信息
半长轴: 6843.367km
偏心率: 0.0001114
轨道倾角: 53.160°
近地点辐角 85.734°
升交点赤经 302.056°
平近点角 274.379°
近地点: 464.467km
远地点: 465.993km
周期: 93.900分钟
每日圈数: 15.335503
详细信息
固有亮度:
5
最大亮度:
2.5
卫星平台:
Starlink v1.5
覆盖范围:
全球
运营商:
太空探索技术公司
运营商所在国:
美国
制造商(研发单位):
太空探索技术公司
制造商所在国:
美国
使用方式:
暂无
卫星简介
星链(Starlink)计划是由太空探索技术公司(SpaceX)提出的一个巨型低轨卫星互联网星座项目,计划在2019年至2024年间在太空搭建由约1.2万颗卫星组成的“星链”网络,其中1584颗将部署在地球上空550千米处的近地轨道,并从2020年开始工作。该卫星仍在工作。
2D轨道图
3D轨道图
轨道高度分析图
轨道倾角分析图
轨道综合分析图
查看轨道综合分析图
交会数据列表
事件ID 空间交会对象 最接近时刻(TCA) 交会距离 交会风险概率(CRP) 交会风险指数(CRI) 操作
CDM_260904-235805-285906-801521
2026-09-04T
23:58:13+0000
2.414 km
极远距离
1.614435E-6 低风险 0.39
CDM_260904-170305-285906-663321
2026-09-04T
17:03:28+0000
2.273 km
极远距离
1.546494E-6 低风险 0.39
CDM_260901-114005-285906-904321
2026-09-01T
11:40:35+0000
2.773 km
极远距离
1.460832E-6 低风险 0.38
CDM_260903-091305-285905-816522
2026-09-03T
09:13:48+0000
2.700 km
极远距离
1.38164E-6 低风险 0.38
CDM_260904-113405-227505-285922
2026-09-04T
11:34:42+0000
2.962 km
极远距离
1.002734E-6 低风险 0.35